Location: *
(32.8140°S, 174.6161°E)
Time: 09:39:45
(UTC+00:00)

IRS-1C - Pass Details

Date: 10 December 2019
Orbit: 816 x 817 km, 98.8° (Epoch: 27 January)

Event Time Altitude Azimuth Distance (km) Brightness Sun altitude
Exits shadow 14:05:01 75° 213° (SSW) 853 4.1 -28.3°
Drops below altitude 10° 14:09:59 10° 194° (SSW) 2,434 7.1 -27.8°
Sets 14:12:21 0° 193° (SSW) 3,374 8.0 -27.6°
